Location: Cuzcurrita-R�o Tir�n
(42.5415°N, 2.9642°W)
Time: 20:55:11
(UTC+00:00)

Cosmos 1603 - Pass Details

Date: 17 January 2021
Orbit: 829 x 861 km, 71.0° (Epoch: 02 March)

Event Time Altitude Azimuth Distance (km) Brightness Sun altitude
Rises 17:25:11 0° 341° (NNW) 3,417 6.8 -3.9°
Reaches altitude 10° 17:27:48 10° 349° (N) 2,483 6.0 -4.4°
Maximum altitude 17:33:08 40° 58° (ENE) 1,248 4.2 -5.3°
Drops below altitude 10° 17:38:29 10° 127° (SE) 2,486 5.9 -6.2°
Sets 17:41:05 0° 135° (SE) 3,422 6.6 -6.6°
